User: anonymous   Login
Location: Unspecified
(0.0000°N, 0.0000°E)
Time: 14:43:22
(UTC+02:00)
Language:

Cosmos 773 Rocket - Orbit

View from above orbital plane
View from above orbital plane
View from above satellite
View from above satellite

Ground track
Ground track

The orbit data is extracted from the following two-line orbital elements,

1  8344U 75094B   18114.90558122 -.00000008 +00000-0 +60017-5 0  9999
2  8344 074.0558 271.2165 0020922 094.4894 265.8651 14.39117713230260
Epoch (UTC): 24 April 2018 21:44:02
Eccentricity: 0.0020922
inclination: 74.0558°
perigee height: 746 km
apogee height: 776 km
right ascension of ascending node: 271.2165°
argument of perigee: 94.4894°
revolutions per day: 14.39117713
mean anomaly at epoch: 265.8651°
orbit number at epoch: 23026

The dashed part of the orbit path shows where the satellite is in the earth's shadow,  

DLR